Regional Weather Roundup
Issued by NWS Jackson, KY

Home | Current Version | Previous Version | Text Only | Print | Product List | Glossary Off
Versions: 1 2 3 4 5 6 7 8 9 10 11 12 13 14 15 16 17 18 19 20 21 22 23 24 25 26 27 28 29 30 31 32 33 34 35 36 37 38 39 40 41 42 43 44 45 46 47 48 49 50

000
ASUS43 KJKL 250110
RWRJKL

EAST KENTUCKY HOURLY WEATHER ROUNDUP
NATIONAL WEATHER SERVICE JACKSON KY
900 PM EDT THU APR 24 2014

NOTE: "FAIR" INDICATES FEW OR NO CLOUDS BELOW 12,000 FEET WITH
NO SIGNIFICANT WEATHER AND/OR OBSTRUCTIONS TO VISIBILITY.

* THESE REPORTS ARE NOT UNDER NWS QUALITY CONTROL AND MAY NOT
  REPORT WEATHER SUCH AS PRECIPITATION AND FOG.

KYZ079-080-083-085-087-088-110-112-115-119-120-250200
...EASTERN KENTUCKY...

CITY           SKY/WX    TMP DP  RH WIND       PRES   REMARKS
JACKSON        CLOUDY    67  30  25 VRB3      29.86F
LONDON         CLOUDY    68  41  37 CALM      29.85S
SOMERSET*      CLOUDY    70  32  24 W5        29.85R
MIDDLESBORO*   MOCLDY    63  44  48 CALM      29.88R
HARLAN APT*    MOCLDY    68  27  21 CALM      29.89R
PIKEVILLE APT* CLEAR     64  30  27 E8        29.87F
BIG SANDY*     CLOUDY    66  29  24 E6        29.87S
MOREHEAD APT*  PTCLDY    64  25  22 MISG      29.87F
$$

KYZ035-036-041-042-044-050-067-078-099-250200
...CENTRAL KENTUCKY...

CITY           SKY/WX    TMP DP  RH WIND       PRES   REMARKS
MT STERLING*   CLOUDY    64  36  34 SE6       29.85F
FLEMING/MASON* CLEAR     59  32  36 E7        29.85F
DANVILLE*      MOCLDY    63  43  48 SE3       29.84R
RICHMOND*      MOCLDY    66  37  34 E3        29.83R
LEXINGTON      CLOUDY    65  39  38 E8        29.83S
FRANKFORT      PTCLDY    60  42  51 E7        29.80S
$$

KYZ091>093-OHZ055-061-077-WVZ005-015-034-035-042-250200
...SOUTHERN OHIO/WEST VIRGINIA...

CITY           SKY/WX    TMP DP  RH WIND       PRES   REMARKS
COVINGTON      CLOUDY    60  32  34 E8        29.82F
COLUMBUS       CLOUDY    58  23  26 E10       29.90F
DAYTON         CLOUDY    59  22  24 E13       29.86F
WILMINGTON     CLOUDY    56  23  27 E8        29.86F
HUNTINGTON     MOCLDY    62  21  20 NE6       29.87F
CHARLESTON     MOCLDY    63  24  22 NE5       29.89F
PINEVILLE*     MOCLDY    59  38  45 MISG      29.95F
BECKLEY        MOCLDY    62  30  29 SE8       29.94F
BLUEFIELD      MOCLDY    65  34  31 SE9       29.96F
$$

VAZ002-007-008-TNZ017-027-036-066-071-250200
...SOUTHWEST VIRGINIA/EAST TENNESSEE...

CITY           SKY/WX    TMP DP  RH WIND       PRES   REMARKS
WISE*          MOCLDY    66  21  18 SE5       29.94F
ABINGDON*      PTCLDY    63  32  32 CALM      29.92S
BRISTOL        MOCLDY    58  36  43 N3        29.90S
KNOXVILLE      MOCLDY    69  38  32 S3        29.88R
OAK RIDGE      MOCLDY    72  39  30 S3        29.89R
CROSSVILLE     CLEAR     68  39  34 S5        29.90R
NASHVILLE      MOCLDY    72  49  44 S9        29.80S
$$

...KEY TO REMARKS...
VSB - VISIBILITY IN MILES
WCI - WIND CHILL INDEX
HX  - HEAT INDEX

$$



USA.gov is the U.S. government's official web portal to all federal, state and local government web resources and services.